Location: Willingham
(52.3167°N, 0.0667°E)
Time: 23:34:55
(UTC+00:00)

CZ-4C R/B - Pass Details

Date: 19 May 2025
Orbit: 425 x 537 km, 98.0° (Epoch: 18 June)

Event Time Altitude Azimuth Distance (km) Brightness Sun altitude
Rises 22:47:03 0° 13° (NNE) 2,622 7.9 -16.1°
Reaches altitude 10° 22:49:11 10° 11° (N) 1,713 6.8 -16.2°
Maximum altitude 22:52:51 72° 287° (WNW) 514 3.2 -16.4°
Enters shadow 22:54:33 29° 208° (SSW) 911 4.0 -16.5°
